Время (UTC), дата Ветер
(°,м/с) 
Видим.   Явления Облачность Т
(°С)
Тd
(°С)
f(%) Тe
(°С)
Pmin
(гПа)
dP
(гПа)
Po
(мм)
O2
(г/м3)
Тmin Tmax R s Состояние
почвы
00 01.07.13 тихо ()   10 км    ясно 
+23 +17.7 72 +37  1002.5  -0.5  749  274           
03 01.07.13 060 (СВ) 10 км    3/3 1000 м 
[Sc]
+22 +16.8 72 +34  1001.7  -0.9  749  275  +22         
06 01.07.13 130 (ЮВ) 10 км    9/8 1000 м кучево-дожд., средняя 
[Cb cap|Ac trans]
+26.9 +17.4 56 +40  1001.6  749  271           
09 01.07.13 190 (Ю) 10 км    9/5 1000 м кучево-дожд., средняя 
[Cb cap|Ac trans]
+30.9 +18.6 48 +47  1002  0.4  749  267           
15 01.07.13 230 (ЮЗ) 2{11}  4000 м  гроза, ливневой дождь  10/8 600 м кучево-дожд., средняя 
[Cb cap|Ac und]
+20.7 +16.8 78 +33  1004.6  751  278    +31.3     
18 01.07.13 110 (В) 10 км  {гроза, ливн. осадки}  6/3 1000 м средняя 
[Sc|Ac trans]
+20.6 +16.8 79 +32  1006.2  1.6  752  278           
21 01.07.13 290 (З) 97  2700 м    10/0 
+19.2 +17.2 88 +29  1005.7  -0.6  752  279           
00 02.07.13 200 (Ю) 10 км    8/8 1000 м 
[Sc]
+19.1 +16.6 85 +33  1004.7  -1  751  279           
03 02.07.13 190 (Ю) 10 км    9/8 1000 м кучево-дожд., средняя 
[Cb cap|Ac As]
+20.7 +16.5 77 +32  1004.4  -0.2  751  278  +18.7    0.5     
06 02.07.13 120 (ЮВ) 4000 м  слаб. ливневой дождь  10/8 1000 м кучево-дожд., средняя 
[Cb cap|Ac und]
+22 +15.6 67 +32  1005.1  0.7  751  277           
09 02.07.13 060 (СВ) 10 км  в посл. час ливневой дождь  10/6 1000 м кучево-дожд., средняя, верхняя 
[Cb cap|Ac trans|Ci ing]
+23.6 +17.9 70 +38  1005.3  0.2  751  275           
12 02.07.13 150 (ЮВ) 1{10}  4000 м  гроза, ливневой дождь  10/10 600 м кучево-дожд. 
[Cb cap]
+19.4 +18.6 95 +36  1006.1  0.7  752  279           
15 02.07.13 180 (Ю) 10 км  {гроза, ливн. осадки}  8/4 1000 м кучево-дожд., средняя, верхняя 
[Cb cap|Ac cast|Ci ing]
+23.6 +17.5 69 +37  1006  752  275    +25.7     
18 02.07.13 140 (ЮВ) 10 км  {гроза, ливн. осадки}  8/8 1000 м 
[Sc diur, vesp]
+21.1 +18 82 +35  1007.5  1.4  753  278           
21 02.07.13 080 (В) 10 км    8/3 1000 м средняя 
[Sc|Ac trans]
+19.7 +16.8 83 +33  1008.4  0.9  754  280           
00 03.07.13 130 (ЮВ) 10 км    1/0 средняя 
[Ac trans]
+20.1 +16 77 +30  1008.2  -0.2  754  279           
03 03.07.13 060 (СВ) 10 км    10/3 1000 м средняя, верхняя 
[Sc|Ac cast|Ci]
+19.5 +17.1 86 +33  1009  0.8  754  280  +18.8         
06 03.07.13 100 (В) 10 км    10/6 1000 м кучево-дожд., средняя, верхняя 
[Cb cap|Ac trans|Ci fib]
+22.3 +17.8 76 +36  1009.8  0.9  755  277           
09 03.07.13 030 (СВ) 10 км  {ливн. осадки}  8/3 1000 м кучево-дожд., верхняя 
[Cb cap|Ci fib]
+25.9 +17.9 61 +40  1009.6  -0.2  755  274           
12 03.07.13 060 (СВ) 2{10}  4000 м  гроза, ливневой дождь  10/6 1000 м кучево-дожд., средняя 
[Cb cap|Ac und]
+25.9 +17.9 61 +40  1009.6  0.9  755  274           
15 03.07.13 140 (ЮВ) 10 км  {гроза, ливн. осадки}  10/5 1000 м кучево-дожд., верхняя 
[Cb cap|Ci fib]
+21.6 +18.9 85 +38  1011  0.4  756  278    +26.6  34     
18 03.07.13 040 (СВ) 4000 м  слаб. ливневой дождь{гроза}  8/6 300 м кучево-дожд., средняя, верхняя 
[Cb cap|Ac trans|Ci fib]
+19.8 +18.4 92 +36  1012  756  280           
21 03.07.13 тихо ()   10 км  в посл. час ливневой дождь  10/8 600 м кучево-дожд., средняя 
[Cb cap|Ac und]
+19.8 +18.8 94 +36  1011.8  -0.3  756  280           
00 04.07.13 070 (В) 10 км  {ливн. осадки}  10/8 1000 м кучево-дожд., средняя 
[Cb cap|Ac und]
+19.7 +18.7 94 +36  1012.2  0.5  757  280           
03 04.07.13 030 (СВ) 10 км  слаб. ливневой дождь  10/8 300 м кучево-дожд., средняя 
[Cb cap|Ac und]
+19.8 +18.8 94 +37  1012.5  0.3  757  280  +19.6       
06 04.07.13 030 (СВ) 10 км  в посл. час ливневой дождь  9/8 1000 м кучево-дожд., средняя, верхняя 
[Cb cap|Ac trans|Ci ing]
+21.7 +19.4 87 +39  1012.5  0.1  757  278           
09 04.07.13 080 (В) 10 км    8/3 1000 м кучево-дожд., средняя, верхняя 
[Cb cap|Ac trans|Cc]
+26.5 +18 60 +41  1012.5  0.1  757  274           
12 04.07.13 200 (Ю) 10 км    9/8 1000 м кучево-дожд., средняя, верхняя 
[Cb cap|Ac trans|Ci ing]
+21.9 +17.4 76 +35  1013.2  0.6  757  279           
15 04.07.13 180 (Ю) 10 км    9/6 1000 м средняя 
[Sc|Ac trans]
+22.5 +17.3 72 +35  1013.1  0.1  757  278    +28.4     
18 04.07.13 тихо ()   10 км    10/4 1000 м средняя, верхняя 
[Sc|Ac trans|Ci]
+21.2 +16.6 75 +32  1013.2  0.1  757  280           
21 04.07.13 тихо ()   10 км    8/0 средняя, верхняя 
[Ac trans|Cc]
+19.4 +17.2 87 +32  1013.5  0.3  758  281           
00 05.07.13 210 (ЮЗ) 10 км    ясно 
+18.3 +17.1 93 +32  1013.1  -0.4  757  282           
03 05.07.13 тихо ()   10 км    8/0 средняя, верхняя 
[Ac trans|Cc]
+18.6 +17 90 +31  1013.1  757  282  +17.6        влажная 
06 05.07.13 120 (ЮВ) 10 км    1/0 средняя 
[Ac trans]
+25.2 +15.9 56 +35  1013.1  0.1  757  276           
09 05.07.13 060 (СВ) 10 км    1/0 средняя 
[Ac trans]
+29.2 +15.4 43 +38  1013  0.1  757  272           
12 05.07.13 080 (В) 10 км    1/1 1000 м 
[Cu hum]
+32 +10.7 27 +34  1012.2  -0.8  757  271           
15 05.07.13 020 (С) 1{11}  10 км  гроза без осадков  8/8 1000 м кучево-дожд. 
[Cb cap]
+27.3 +11.3 37 +30  1011.9  -0.3  756  275    +32.8       
18 05.07.13 360 (С) 10 км  {гроза}  1/0 средняя 
[Ac trans]
+24.8 +14.4 52 +32  1012.1  -0.3  756  277           
21 05.07.13 030 (СВ) 10 км    ясно 
+23.9 +13.8 53 +30  1012.3  0.2  757  278           
00 06.07.13 тихо ()   10 км    ясно 
+20.2 +14.6 70 +28  1012.3  757  281           
03 06.07.13 070 (В) 10 км    ясно 
+20 +14.1 69 +27  1012.5  0.2  757  281  +19         
06 06.07.13 070 (В) 10 км    ясно 
+27.6 +13.8 43 +34  1012.6  0.2  757  274           
09 06.07.13 040 (СВ) 10 км    ясно 
+32.3 +12.1 29 +36  1012.3  -0.3  757  270           
12 06.07.13 040 (СВ) 10 км    4/4 1000 м 
[Cu Sc]
+32 +12.4 30 +36  1011.9  -0.4  756  271           
15 06.07.13 030 (СВ) 10 км    3/0 средняя 
[Sc|Ac trans]
+32.5 +10.9 27 +35  1011.4  -0.5  756  270    +33.5       
18 06.07.13 090 (В) 10 км    3/3 1000 м 
[Sc]
+27.8 +14.6 44 +36  1012.5  1.1  757  274           
21 06.07.13 060 (СВ) 10 км    ясно 
+23.5 +13.9 55 +30  1013.5  0.9  758  278           
00 07.07.13 060 (СВ) 10 км    ясно 
+20.2 +14.7 71 +28  1014.1  0.7  758  281           
03 07.07.13 210 (ЮЗ) 10 км    6/4 1000 м средняя 
[Sc|Ac trans]
+19.7 +16.6 82 +32  1014.7  0.6  758  281  +19.2         
06 07.07.13 070 (В) 10 км    4/0 средняя 
[Ac trans]
+27.1 +15.5 49 +36  1014.7  758  275           
09 07.07.13 080 (В) 10 км    3/0 средняя 
[Ac trans]
+31.5 +12.7 32 +36  1014.6  758  272           
12 07.07.13 100 (В) 10 км    1/1 1000 м 
[Cu hum]
+33.2 +12.4 28 +37  1014.2  -0.4  758  270           
15 07.07.13 060 (СВ) 10 км    3/1 1000 м средняя 
[Cu hum|Ac trans]
+33.3 +11.4 26 +36  1013.4  -0.8  758  270    +34.1       
18 07.07.13 030 (СВ) 10 км    ясно 
+28.3 +12.6 38 +33  1014  0.6  758  274           
21 07.07.13 020 (С) 10 км    ясно 
+25.4 +13.4 47 +31  1014.5  0.4  758  277           
00 08.07.13 тихо ()   10 км    ясно 
+22.1 +14.3 61 +29  1014.5  758  280           
03 08.07.13 тихо ()   10 км    ясно 
+21.7 +14.6 64 +29  1015  0.5  759  280  +20.9         
06 08.07.13 050 (СВ) 10 км    ясно 
+29.3 +17.1 48 +41  1015.4  0.4  759  272           
09 08.07.13 070 (В) 10 км    1/1 1000 м 
[Cu hum]
+33.8 +11.7 26 +37  1015.3  759  270           
12 08.07.13 060 (СВ) 10 км    3/3 1000 м 
[Cu hum]
+34.5 +8.9 21 +35  1014.5  -0.8  758  270           
15 08.07.13 030 (СВ) 10 км    1/1 1000 м 
[Cu hum]
+34.6 +8.6 20 +35  1013.2  -1.2  757  269    +35.8       
18 08.07.13 310 (СЗ) 10 км    3/0 средняя 
[Ac trans]
+29.1 +11.7 34 +32  1013.6  0.3  758  274           
21 08.07.13 360 (С) 10 км    3/3 1000 м 
[Sc diur, vesp]
+27.4 +12.1 39 +31  1013.7  0.1  758  275           
00 09.07.13 230 (ЮЗ) 10 км    3/3 1000 м 
[Sc]
+23.5 +15.8 62 +33  1013.8  758  278           
03 09.07.13 260 (З) 10 км    ясно 
+22.7 +18.8 79 +38  1013.7  0.1  758  277  +21.9         
06 09.07.13 330 (СЗ) 10 км    3/0 средняя 
[Ac cast]
+29.6 +18.6 52 +45  1013.1  -0.5  757  271           
09 09.07.13 310 (СЗ) 10 км    1/1 1000 м 
[Cu hum]
+34.4 +11.4 25 +37  1012.5  -0.5  757  269           
12 09.07.13 350 (С) 10 км    5/3 1000 м средняя, верхняя 
[Cu med, cong|Ac trans|Ci sp]
+35.6 +10.8 22 +38  1011.3  -1.2  756  268           
15 09.07.13 320 (СЗ) 10 км    1/1 1000 м 
[Sc diur, vesp]
+33.5 +13.1 29 +39  1010.7  -0.7  755  269    +35.8       
18 09.07.13 310 (СЗ) 10 км    ясно 
+27.5 +15.6 48 +37  1011.9  1.1  756  274           
21 09.07.13 300 (СЗ) 10 км    ясно 
+24.3 +15.1 56 +33  1012.1  0.2  756  277           
00 10.07.13 280 (З) 10 км    ясно 
+22.1 +17.1 73 +34  1011.6  -0.5  756  278           
03 10.07.13 010 (С) 10 км    ясно 
+20.9 +13 61 +26  1011.3  -0.3  756  280  +20.7         
06 10.07.13 020 (С) 10 км    ясно 
+27 +12.8 41 +32  1011  -0.2  756  275           
09 10.07.13 320 (СЗ) 10 км    3/3 1000 м 
[Cu hum]
+30.3 +10.4 29 +32  1010.1  -0.8  755  272           
12 10.07.13 290 (З) 10 км    6/6 1000 м 
[Cu hum]
+31.8 +10.6 27 +34  1008.8  -1.3  754  270           
15 10.07.13 340 (С) 10 км    3/3 1000 м 
[Cu hum]
+30.8 +10.5 29 +33  1007.9  -1  753  271    +31.9       
18 10.07.13 330 (СЗ) 10 км    ясно 
+25.9 +12.7 44 +31  1008.3  0.4  754  275           
21 10.07.13 360 (С) 10 км    1/1 1000 м 
[Sc]
+23.2 +14.5 58 +31  1008.3  0.1  754  277           
00 11.07.13 020 (С) 10 км    6/6 1000 м 
[Sc]
+21.4 +13 59 +27  1008  0.1  753  279           
03 11.07.13 330 (СЗ) 10 км    8/8 1000 м 
[Sc]
+20.3 +13 63 +26  1008.4  0.4  754  280  +19.6         
06 11.07.13 030 (СВ) 10 км    3/0 верхняя 
[Ci fib]
+27.7 +12.7 40 +33  1008.2  0.1  754  273           
09 11.07.13 030 (СВ) 10 км    ясно 
+30.6 +9.7 27 +31  1007.8  -0.4  753  271           
12 11.07.13 030 (СВ) 10 км    3/3 1000 м 
[Cu hum]
+31.9 +8.6 24 +32  1007.2  -0.6  753  270           
15 11.07.13 040 (СВ) 10 км    3/3 1000 м 
[Cu hum]
+31.3 +7.7 23 +31  1007.3  753  271    +32.4       
18 11.07.13 тихо ()   10 км    3/3 1000 м 
[Sc diur, vesp]
+26.9 +9.9 34 +28  1007.7  0.4  753  275           
21 11.07.13 360 (С) 10 км    3/3 1000 м 
[Sc diur, vesp]
+24.6 +12.8 48 +30  1008.6  0.4  754  276           
00 12.07.13 020 (С) 10 км    5/5 1000 м 
[Sc diur, vesp]
+22.2 +14.1 60 +29  1009.2  0.6  754  278           
03 12.07.13 030 (СВ) 10 км    4/3 1000 м верхняя 
[Sc diur, vesp|Ci fib]
+20.7 +13.4 63 +27  1010  0.8  755  280  +20.7        сухая 
06 12.07.13 тихо ()   10 км    ясно 
+27.9 +12.9 40 +33  1010.5  0.5  755  274           
09 12.07.13 060 (СВ) 10 км    1/1 1500 м 
[Cu hum]
+32.1 +9.8 25 +33  1010.3  0.1  755  271           
12 12.07.13 030 (СВ) 10 км    3/3 1000 м 
[Cu hum]
+33.6 +9.5 23 +34  1010.1  -0.2  755  269           
15 12.07.13 040 (СВ) 10 км    3/3 1000 м 
[Sc diur, vesp]
+32.8 +9.6 24 +33  1010  0.1  755  270    +34.3       
18 12.07.13 тихо ()   10 км    1/0 средняя 
[Ac trans]
+27.6 +14.1 44 +35  1010.7  0.7  755  274           
21 12.07.13 тихо ()   10 км    3/0 средняя 
[Ac trans]
+25.8 +13.6 47 +32  1011.2  0.4  756  276           
00 13.07.13 250 (З) 10 км    1/0 средняя 
[Ac trans]
+23.7 +15.2 59 +32  1011.6  0.4  756  277           
06 13.07.13 тихо ()   10 км    ясно 
+28.6 +15.9 46 +39  1011.9  0.1  756  273           
09 13.07.13 040 (СВ) 10 км    ясно 
+32.7 +13.6 31 +39  1011.3  0.1  756  269           
12 13.07.13 270 (З) 10 км    8/8 1000 м 
[Cu Sc]
+30.6 +13 34 +36  1010.4  -0.9  755  271           
15 13.07.13 320 (СЗ) 10 км    8/0 средняя, верхняя 
[Ac trans|Ci fib]
+31.3 +13.7 34 +38  1010  -0.4  755  270    +34.1       
18 13.07.13 290 (З) 10 км    ясно 
+28 +16.4 49 +39  1010.3  -0.4  755  273           
21 13.07.13 310 (СЗ) 10 км    8/8 1000 м 
[Sc]
+25.2 +17.4 62 +38  1010.7  0.3  755  275           
00 14.07.13 тихо ()   10 км    9/9 1000 м 
[Sc]
+23.9 +18.9 74 +40  1011  0.3  756  276           
03 14.07.13 280 (З) 10 км    9/6 1000 м средняя, верхняя 
[Sc|Ac trans|Ci fib]
+23.1 +19.4 80 +40  1010.8  -0.2  755  276  +22.2         
06 14.07.13 280 (З) 10 км    8/4 1000 м средняя 
[Sc|Ac cast]
+26.9 +19.3 63 +44  1010.5  -0.2  755  273           
09 14.07.13 270 (З) 10 км    8/1 1000 м средняя, верхняя 
[Cu hum|Ac cast|Ci fib]
+31.9 +16.2 39 +43  1009.8  -0.7  755  269           
12 14.07.13 010 (С) 10 км    10/6 1000 м кучево-дожд., средняя, верхняя 
[Cb cap|Ac trans|Ci ing]
+31.1 +13.4 34 +37  1008.4  -0.7  754  270           
15 14.07.13 300 (СЗ) 1{14}  10 км  в посл. час гроза{ливн. осадки}  9/8 1000 м кучево-дожд., средняя 
[Cb cap|Ac trans]
+21.8 +19.1 85 +38  1009.1  0.6  754  277    +33.3     
18 14.07.13 190 (Ю) 10 км  {гроза, ливн. осадки}  4/4 1000 м 
[Sc]
+21.6 +19.4 87 +39  1010.3  1.2  755  277           
21 14.07.13 200 (Ю) 10 км    ясно 
+20.5 +17.5 83 +34  1010.4  755  279           
00 15.07.13 200 (Ю) 10 км    3/0 средняя 
[Ac trans]
+19.6 +17 85 +33  1010.4  755  280           
03 15.07.13 210 (ЮЗ) 10 км    3/3 1000 м 
[Sc]
+19.3 +16.5 84 +32  1010.9  0.5  756  281  +19         
06 15.07.13 210 (ЮЗ) 10 км    ясно 
+26.5 +20.1 68 +45  1011  0.1  756  273           
09 15.07.13 230 (ЮЗ) 10 км    4/4 1000 м 
[Cu med, cong]
+30.2 +16.7 44 +42  1010.8  0.1  756  271           
12 15.07.13 270 (З) 10 км    4/3 1000 м верхняя 
[Cu med, cong|Ci fib]
+32 +13.7 33 +38  1010.1  -0.7  755  270           
15 15.07.13 290 (З) 10 км    3/3 1000 м 
[Cu med, cong]
+30 +15.3 41 +39  1010  0.1  755  271    +32.3       
18 15.07.13 тихо ()   10 км    3/0 верхняя 
[Ci fib]
+26.4 +16.8 56 +38  1011  0.9  756  274           
21 15.07.13 тихо ()   10 км    5/5 1000 м 
[Sc]
+23.7 +18 70 +38  1010.9  -0.2  756  276           
00 16.07.13 250 (З) 10 км    8/4 1000 м верхняя 
[Sc|Ci fib]
+22 +18.5 81 +37  1011.1  0.2  756  278           
03 16.07.13 тихо ()   10 км    10/3 1000 м верхняя 
[Sc|Ci fib]
+21.5 +19.1 86 +38  1011.3  0.2  756  278  +21         
06 16.07.13 300 (СЗ) 10 км    10/0 средняя, верхняя 
[Ac cast|Ci fib]
+26.4 +16.5 55 +38  1011.2  756  274           
09 16.07.13 220 (ЮЗ) 10 км    9/5 1000 м средняя 
[Cu med, cong|Ac cast]
+29.3 +16 45 +40  1011  -0.2  756  272           
12 16.07.13 250 (З) 10 км    8/4 1000 м средняя, верхняя 
[Cu med, cong|Ac trans|Cc]
+31.7 +8.3 23 +32  1010.3  -0.6  755  271           
15 16.07.13 290 (З) 10 км    3/3 1500 м 
[Cu med, cong]
+30.3 +14.8 39 +38  1010.1  -0.2  755  271    +32.4       
18 16.07.13 290 (З) 10 км    ясно 
+25.2 +13.3 48 +31  1011.8  1.6  756  276           
21 16.07.13 260 (З) 10 км    ясно 
+22.9 +14.2 58 +30  1012.5  0.7  757  278           
00 17.07.13 тихо ()   10 км    3/1 1000 м средняя 
[Sc|Ac trans]
+20.9 +15.7 72 +31  1012.3  -0.2  757  280           
03 17.07.13 220 (ЮЗ) 10 км    8/4 1000 м средняя, верхняя 
[Sc|Ac trans|Ci fib]
+20.7 +15.2 71 +29  1012.5  0.2  757  280  +20.1         
06 17.07.13 290 (З) 10 км    6/4 1000 м средняя 
[Sc|Ac trans]
+26.7 +16.6 54 +38  1012.8  0.4  757  274           
09 17.07.13 260 (З) 10 км    8/8 1000 м кучево-дожд. 
[Cb cap]
+30.2 +12.1 33 +34  1012.3  -0.5  757  272           
12 17.07.13 350 (С) 10 км    8/5 1000 м кучево-дожд., верхняя 
[Cb cap|Ci]
+32.3 +10.8 27 +34  1011.6  -0.7  756  271           
15 17.07.13 310 (СЗ) 10 км    4/3 1000 м верхняя 
[Cu hum|Cc]
+31 +11 29 +33  1011.1  -0.5  756  272    +32.7       
18 17.07.13 320 (СЗ) 10 км    ясно 
+26.1 +13.4 45 +32  1012.5  1.4  757  276           
21 17.07.13 310 (СЗ) 10 км    ясно 
+23.5 +16.1 63 +34  1012.6  757  277           
00 18.07.13 280 (З) 10 км    6/6 1000 м 
+22.1 +16.7 71 +34  1012.3  -0.3  757  278           
03 18.07.13 270 (З) 10 км    8/8 1000 м 
[Sc]
+21.6 +17.6 78 +35  1012.3  0.1  757  279  +21         
06 18.07.13 300 (СЗ) 10 км    6/0 средняя, верхняя 
[Ac cast|Ci fib]
+26.6 +16.9 55 +38  1012.2  0.1  757  274           
09 18.07.13 320 (СЗ) 10 км    8/3 1000 м средняя, верхняя 
[Cu med, cong|Ac trans|Ci fib]
+31.1 +12.7 32 +36  1011.9  -0.3  756  271           
12 18.07.13 350 (С) 10 км    5/5 1000 м 
[Cu med, cong]
+32.6 +11.2 27 +35  1010.9  -1  756  270           
15 18.07.13 360 (С) 10 км    10/3 1000 м кучево-дожд., верхняя 
[Cb cap|Ci fib]
+31 +10.6 28 +33  1010.7  -0.2  755  272    +32.9       
18 18.07.13 310 (СЗ) 10 км    10/3 1000 м верхняя 
[Sc diur, vesp|Ci fib]
+27 +13.1 42 +32  1011.8  1.1  756  275           
21 18.07.13 300 (СЗ) 10 км    10/4 1000 м средняя, верхняя 
[Sc|Ac trans|Ci fib]
+24.1 +13.8 53 +31  1012.2  0.3  757  277           
00 19.07.13 360 (С) 10 км    10/4 600 м верхняя 
[Sc|Ci fib]
+23 +12.8 53 +28  1011.4  -0.8  756  278           
03 19.07.13 300 (СЗ) 10 км    10/3 1000 м верхняя 
[Sc|Ci fib]
+20.7 +14 65 +27  1011.4  756  280  +20.7         
06 19.07.13 280 (З) 10 км    4/0 средняя, верхняя 
[Ac trans|Cc]
+25.8 +15 51 +34  1011.4  -0.1  756  275  +20.5         
09 19.07.13 330 (СЗ) 10 км    6/6 1000 м 
[Cu med, cong]
+30.4 +9.6 27 +31  1010.9  -0.5  756  272           
12 19.07.13 020 (С) 10 км    5/5 1000 м 
[Sc diur, vesp]
+32.4 +9.5 24 +33  1010.1  -0.8  755  270           
15 19.07.13 320 (СЗ) 10 км    6/3 1000 м кучево-дожд., верхняя 
[Cb cap|Ci ing]
+31.1 +10.1 27 +32  1010.1  0.1  755  271    +33.9       
18 19.07.13 050 (СВ) 10 км    5/3 1500 м средняя 
[Sc|Ac trans]
+25.6 +13.2 46 +31  1012  1.8  756  276           
21 19.07.13 260 (З) 10 км    ясно 
+23.2 +16.2 65 +34  1011.7  -0.4  756  277           
00 20.07.13 тихо ()   10 км    ясно 
+21.1 +16.3 74 +32  1011.9  0.2  756  279           
03 20.07.13 тихо ()   10 км    ясно 
+20.2 +16.3 78 +31  1012  756  280  +19.6         
06 20.07.13 200 (Ю) 10 км    ясно 
+26.4 +16.4 54 +37  1011.5  -0.4  756  274           
09 20.07.13 210 (ЮЗ) 10 км    3/3 1000 м 
[Cu hum]
+30.8 +12.4 32 +35  1010.8  -0.7  756  271           
12 20.07.13 100 (В) 10 км    6/6 1000 м 
[Cu med, cong]
+31.2 +9.2 26 +31  1009.5  -1.2  755  271           
15 20.07.13 тихо ()   10 км    6/6 1000 м 
[Cu med, cong]
+31.8 +11.4 29 +35  1008.8  -0.8  754  270    +33.2       
18 20.07.13 300 (СЗ) 10 км    ясно 
+27.3 +10.7 35 +29  1010  1.2  755  275           
21 20.07.13 220 (ЮЗ) 10 км    3/3 1000 м 
[Sc]
+23.9 +12 47 +28  1009.9  -0.2  755  277           
00 21.07.13 250 (З) 10 км    ясно 
+22.2 +15.5 66 +32  1009.3  -0.6  754  278           
03 21.07.13 200 (Ю) 10 км    3/3 1000 м 
[Sc]
+20.2 +14.6 70 +28  1009.5  0.2  755  280  +19.8        сухая 
06 21.07.13 230 (ЮЗ) 10 км    1/1 1000 м 
[Cu hum]
+26.9 +14.9 48 +35  1008.7  -0.7  754  274           
09 21.07.13 300 (СЗ) 10 км    8/8 1000 м кучево-дожд. 
[Cb cap]
+29.3 +15.7 44 +39  1008.2  -0.4  754  271           
12 21.07.13 280 (З) 10 км    9/8 1000 м кучево-дожд., средняя 
[Cb cap|Ac trans]
+28 +15.1 45 +37  1008.1  -0.2  754  272           
15 21.07.13 290 (З) 10 км  {ливн. осадки}  3/1 1500 м средняя 
[Sc|Ac trans]
+27 +13.8 44 +34  1008.4  0.3  754  274    +30.8     
18 21.07.13 280 (З) 10 км  {ливн. осадки}  3/1 1500 м средняя 
[Sc|Ac trans]
+22.2 +11.4 50 +25  1010.7  2.3  755  279           
21 21.07.13 230 (ЮЗ) 10 км    3/0 средняя 
[Ac trans]
+20 +12.9 64 +25  1011  0.3  756  281           
00 22.07.13 290 (З) 10 км    4/3 1500 м средняя 
[Sc|Ac trans]
+18.6 +12.8 69 +25  1011.1  0.1  756  283           
03 22.07.13 тихо ()   10 км    3/3 1500 м 
[Sc]
+18.2 +10.2 60 +19  1011.5  0.4  756  284  +17.3         
06 22.07.13 320 (СЗ) 10 км    3/3 1000 м 
[Cu hum]
+23.5 +9.6 41 +24  1011.6  0.1  756  279           
09 22.07.13 300 (СЗ) 10 км    5/5 1000 м 
[Cu hum]
+26.2 +8 32 +26  1010.9  -0.6  756  277           
12 22.07.13 280 (З) 10 км    5/5 1000 м 
[Cu med, cong]
+27.2 +8.4 31 +27  1010.3  -0.7  755  275           
15 22.07.13 300 (СЗ) 10 км    3/3 1000 м 
[Cu hum]
+25.7 +8.4 33 +26  1009.8  -0.5  755  277    +27.3       
18 22.07.13 260 (З) 10 км    3/3 1000 м 
[Sc diur, vesp]
+22.1 +8.9 43 +22  1010.7  0.8  755  280           
21 22.07.13 230 (ЮЗ) 10 км    3/0 средняя 
[Ac trans]
+20.2 +10.2 53 +21  1010.7  755  282           
00 23.07.13 190 (Ю) 10 км    ясно 
+16.3 +11.8 75 +21  1009.9  -0.9  755  285           
06 23.07.13 210 (ЮЗ) 10 км    8/4 1000 м средняя 
[Sc|Ac trans]
+23.2 +14.1 57 +30  1009.8  0.1  755  277           
09 23.07.13 270 (З) 10 км    8/6 1000 м кучево-дожд., средняя 
[Cb cap|Ac trans]
+27.1 +10.4 35 +29  1009.4  -0.3  755  275           
12 23.07.13 230 (ЮЗ) 10 км    8/5 1000 м кучево-дожд., средняя, верхняя 
[Cb cap|Ac trans|Cc]
+29 +9.6 30 +30  1008.9  -0.5  754  273           
15 23.07.13 240 (ЮЗ) 4{10}  10 км    6/6 1000 м 
[Cu med, cong]
+27.2 +10.3 35 +29  1009.5  0.6  755  275    +30       
18 23.07.13 220 (ЮЗ) 10 км    3/3 1000 м 
[Sc]
+23.5 +11.7 47 +27  1011.3  1.7  756  278           
21 23.07.13 190 (Ю) 10 км    ясно 
+20.5 +14.9 70 +29  1011.5  0.2  756  280           
00 24.07.13 190 (Ю) 10 км    9/6 1000 м средняя 
[Sc|Ac trans]
+20.1 +15 72 +29  1011.6  0.1  756  281           
03 24.07.13 200 (Ю) 10 км    ясно 
+19.2 +14.8 76 +29  1011.8  0.2  756  282  +18.7        сухая 
06 24.07.13 290 (З) 97  2700 м    10/0 
+26 +12.2 42 +30  1010.8  -1  755  276           
09 24.07.13 240 (ЮЗ) 5-12{12}  10 км    6/3 1000 м средняя 
[Cu med, cong|Ac trans]
+29 +9.1 29 +29  1010.7  755  274           
12 24.07.13 300 (СЗ) 4-10{12}  10 км    9/9 1000 м кучево-дожд. 
[Cb cap]
+26.5 +14.1 46 +33  1011.3  0.6  756  275           
15 24.07.13 290 (З) 2{10}  10 км    8/4 1000 м кучево-дожд., средняя 
[Cb cap|Ac trans]
+25.2 +16.2 57 +36  1011.4  756  275    +29.7       
18 24.07.13 тихо ()   10 км    3/3 1500 м 
[Sc]
+21.8 +16.5 72 +33  1012.3  0.9  757  279           
21 24.07.13 190 (Ю) 10 км  в посл. час ливневой дождь  10/10 1000 м кучево-дожд. 
[Cb cap]
+21.7 +16.6 73 +33  1012  -0.3  756  279           
00 25.07.13 210 (ЮЗ) 10 км  зарница  8/5 1000 м кучево-дожд., средняя, верхняя 
[Cb cap|Ac trans|Cs]
+21.1 +14.8 67 +29  1011.7  -0.3  756  280           
03 25.07.13 210 (ЮЗ) 10 км    3/3 1500 м 
[Sc]
+19.6 +16 80 +31  1011.9  0.2  756  281  +19.3         
06 25.07.13 280 (З) 10 км    3/3 1000 м кучево-дожд. 
[Cb cap]
+25.6 +16.6 58 +37  1011.7  0.1  756  275           
09 25.07.13 230 (ЮЗ) 10 км    6/4 1000 м кучево-дожд., средняя, верхняя 
[Cb cap|Ac trans|Ci fib]
+28.4 +14.3 42 +36  1010.5  -1.2  755  273           
12 25.07.13 270 (З) 10 км    8/5 1000 м кучево-дожд., средняя 
[Cb cap|Ac trans]
+27.7 +14.7 45 +36  1009.8  -0.7  755  273           
15 25.07.13 300 (СЗ) 10 км    5/5 1000 м кучево-дожд. 
[Cb cap]
+27.2 +14.4 45 +35  1009.8  755  274    +29       
18 25.07.13 210 (ЮЗ) 10 км    3/3 1000 м кучево-дожд. 
[Cb cap]
+23.8 +15.9 61 +34  1010.3  0.4  755  277           
21 25.07.13 200 (Ю) 10 км    3/3 1000 м 
[Sc diur, vesp]
+20.6 +15.3 72 +30  1009.7  -0.6  755  280           
00 26.07.13 200 (Ю) 10 км    3/3 1000 м кучево-дожд. 
[Cb cap]
+20 +15.1 73 +29  1008.8  -0.9  754  280           
03 26.07.13 220 (ЮЗ) 10 км    6/4 1000 м кучево-дожд., верхняя 
[Cb cap|Ci fib]
+20.3 +15.4 73 +30  1008.4  -0.4  754  279  +19.8         
09 26.07.13 260 (З) 10 км  {гроза, ливн. осадки}  9/6 1000 м кучево-дожд., средняя, верхняя 
[Cb cap|Ac trans|Ci ing]
+24.4 +17.1 64 +37  1008.7  -0.5  754  275           
12 26.07.13 220 (ЮЗ) 3{10}  10 км  {гроза, ливн. осадки}  8/5 600 м кучево-дожд., средняя, верхняя 
[Cb cap|Ac trans|Ci ing]
+27.4 +15.4 48 +37  1008.3  -0.3  754  273           
18 26.07.13 230 (ЮЗ) 10 км    3/0 верхняя 
[Ci]
+22.5 +13.8 58 +29  1009.6  0.6  755  278           
21 26.07.13 200 (Ю) 10 км    ясно 
+19.4 +16 81 +31  1009.3  -0.3  754  280           
00 27.07.13 210 (ЮЗ) 10 км    4/0 верхняя 
[Ci]
+18.5 +15.5 83 +29  1008.9  -0.5  754  281           
03 27.07.13 200 (Ю) 10 км    9/8 1000 м средняя, верхняя 
[Sc|Ac trans|Ci]
+18.7 +15.1 80 +29  1008.3  -0.6  754  281  +18        сухая 
06 27.07.13 230 (ЮЗ) 10 км    9/6 1000 м средняя, верхняя 
[Sc|Ac trans|Ci fib]
+24.3 +15.9 59 +34  1008.2  0.1  754  275           
09 27.07.13 270 (З) 10 км    9/6 1000 м кучево-дожд., средняя, верхняя 
[Cb cap|Ac trans|Ci fib]
+27.7 +14.9 46 +36  1007.2  -0.9  753  272           
12 27.07.13 320 (СЗ) 2{10}  4000 м  гроза, ливневой дождь  10/10 1000 м кучево-дожд. 
[Cb cap]
+20 +16 78 +30  1009.4  2.1  754  280           
15 27.07.13 210 (ЮЗ) 10 км  {гроза, ливн. осадки}  9/6 1000 м кучево-дожд., средняя, верхняя 
[Cb cap|Ac trans|Ci fib]
+23.5 +17.5 69 +37  1008.3  -1.1  754  276    +29.2     
18 27.07.13 200 (Ю) 10 км  {гроза, ливн. осадки}  8/6 1000 м средняя, верхняя 
[Sc|Ac trans|Ci fib]
+21.6 +18.7 84 +37  1009.4  754  277           
21 27.07.13 290 (З) 10 км    6/0 верхняя 
[Ci fib]
+20.1 +18.3 89 +35  1009.6  0.2  755  279           
00 28.07.13 230 (ЮЗ) 10 км    6/0 верхняя 
[Ci fib]
+18.8 +17.4 92 +33  1009.4  -0.2  754  280           
03 28.07.13 250 (З) 10 км    8/3 1000 м средняя, верхняя 
[Sc|Ac trans|Ci fib]
+18.3 +16.9 92 +32  1010  0.6  755  281  +17.9         
06 28.07.13 тихо ()   10 км    1/0 средняя 
[Ac trans]
+25.4 +17.8 63 +39  1010.6  0.6  755  274           
09 28.07.13 320 (СЗ) 10 км  {гроза}  8/6 1000 м кучево-дожд., верхняя 
[Cb cap|Ci ing]
+28.4 +15.6 46 +38  1010.9  0.4  756  273           
12 28.07.13 350 (С) 10 км  {гроза}  9/8 1000 м средняя, верхняя 
[Cu med, cong|Ac trans|Ci ing]
+28 +10.8 34 +30  1011.1  0.2  756  274           
15 28.07.13 340 (С) 10 км    8/5 1000 м верхняя 
[Sc diur, vesp|Ci fib]
+28.1 +8.7 30 +28  1012.2  1.1  757  275    +30.1       
18 28.07.13 290 (З) 10 км    ясно 
+23.3 +12.2 50 +27  1013.9  1.6  758  279           
21 28.07.13 230 (ЮЗ) 10 км    ясно 
+20 +14.6 71 +28  1014.4  0.4  758  282           
00 29.07.13 тихо ()   10 км    4/0 средняя 
[Ac trans]
+18.7 +13 69 +24  1014.1  -0.3  758  283           
03 29.07.13 тихо ()   10 км    9/8 1000 м кучево-дожд., средняя 
[Cb cap|Ac trans]
+17.7 +13.2 75 +23  1013.8  -0.4  758  284  +17.4         
06 29.07.13 070 (В) 10 км  гроза без осадков  10/8 1000 м кучево-дожд., верхняя 
[Cb cap|Ci fib]
+21.2 +15.2 69 +30  1014  0.3  758  280           
09 29.07.13 330 (СЗ) 10 км  {гроза}  10/3 1000 м кучево-дожд., средняя, верхняя 
[Cb cap|Ac trans|Cc]
+28.4 +9.9 31 +29  1013.5  -0.4  758  275           
12 29.07.13 060 (СВ) 10 км  осадки на расстоянии{гроза}  8/8 1000 м кучево-дожд. 
[Cb cap]
+24.8 +13.4 49 +31  1012.8  -0.8  757  277           
15 29.07.13 210 (ЮЗ) 10 км  {гроза, ливн. осадки}  5/3 1000 м кучево-дожд., верхняя 
[Cb cap|Ci fib]
+25.3 +14.4 51 +33  1012.4  -0.4  757  276    +29     
18 29.07.13 180 (Ю) 10 км  {гроза, ливн. осадки}  8/3 1000 м кучево-дожд., верхняя 
[Cb cap|Ci fib]
+21.9 +15.5 67 +31  1013.4  757  279           
21 29.07.13 200 (Ю) 10 км    5/0 верхняя 
[Ci fib]
+19.4 +14.3 72 +28  1012.5  -0.9  757  282           
00 30.07.13 190 (Ю) 10 км    ясно 
+18.6 +14.7 78 +28  1011.2  -1.3  756  282           
03 30.07.13 190 (Ю) 10 км    10/4 1000 м кучево-дожд., средняя, верхняя 
[Cb cap|Ac trans|Ci fib]
+19.8 +14.6 72 +29  1009.7  -1.4  755  281  +18.3         
06 30.07.13 220 (ЮЗ) 1{10}  10 км  в посл. час гроза{ливн. осадки}  9/9 1000 м кучево-дожд. 
[Cb cap]
+17.4 +16.4 94 +30  1009.4  -0.3  754  282  +16.3         
09 30.07.13 210 (ЮЗ) 10 км    8/6 1000 м кучево-дожд., средняя, верхняя 
[Cb cap|Ac trans|Ci fib]
+24.7 +15.9 58 +35  1009.4  755  275           
15 30.07.13 220 (ЮЗ) 10 км    5/4 1000 м кучево-дожд., верхняя 
[Cb cap|Ci ing]
+24.9 +14.8 53 +33  1008.8  -0.1  754  275    +27.6  22     
18 30.07.13 200 (Ю) 10 км    3/3 1000 м 
[Sc]
+20.3 +14.5 69 +28  1009.8  755  280           
21 30.07.13 200 (Ю) 10 км    ясно 
+18.7 +14.5 77 +28  1009.4  -0.4  754  282           
00 31.07.13 210 (ЮЗ) 10 км    ясно 
+18.8 +14.8 78 +28  1008.7  -0.7  754  281           
03 31.07.13 200 (Ю) 10 км    3/3 1000 м 
[Sc]
+19 +15.1 78 +29  1008.1  -0.6  753  281  +18.5        влажная 
06 31.07.13 210 (ЮЗ) 10 км    1/0 средняя 
[Ac cast]
+24.4 +15.9 59 +35  1007.8  -0.2  753  275           
09 31.07.13 250 (З) 10 км    6/4 1000 м кучево-дожд., верхняя 
[Cb cap|Ci ing]
+28.3 +11.4 35 +31  1006.6  -1.2  752  273           
12 31.07.13 270 (З) 3{12}  10 км  в посл. час гроза  6/5 1000 м кучево-дожд., верхняя 
[Cb cap|Ci ing]
+24.8 +16.8 61 +37  1007.1  0.4  753  274           
15 31.07.13 200 (Ю) 10 км    3/1 1500 м средняя 
[Cu med, cong|Ac trans]
+24.2 +16.7 63 +36  1007.9  0.7  753  275    +29.1  0.5     
18 31.07.13 210 (ЮЗ) 10 км    3/3 1500 м 
[Sc]
+21.6 +16.6 73 +33  1008.8  754  278           
21 31.07.13 220 (ЮЗ) 10 км    ясно 
+20.5 +16.9 80 +32  1008.9  754  279           
00 01.08.13 210 (ЮЗ) 10 км    ясно 
+19.6 +16.9 84 +33  1008.5  -0.4  754  280           
03 01.08.13 210 (ЮЗ) 10 км    1/0 средняя 
[Ac trans]
+19.6 +17.2 86 +34  1008.9  0.4  754  280  +19         
06 01.08.13 180 (Ю) 10 км    8/0 средняя, верхняя 
[Ac trans|Ci fib]
+25.3 +17.7 63 +39  1009.5  0.6  755  274           
09 01.08.13 240 (ЮЗ) 10 км    6/4 1000 м кучево-дожд., верхняя 
[Cb cap|Ci fib]
+29.3 +16.8 47 +41  1008.8  0.6  754  271           
Время (UTC), дата Ветер
(°,м/с) 
Видим.   Явления Облачность Т
(°С)
Тd
(°С)
f(%) Тe
(°С)
Pmin
(гПа)
dP
(гПа)
Po
(мм)
O2
(г/м3)
Тmin Tmax R s Состояние
почвы